Submittal Forms
Current Contests
Recent Contests

Club Activity Tracker - Mad River Radio Club (from club selection on form)

Recent postings for the selected club or group are listed below. Other than the call used, all calls listed are only those associated with the club or group. Click on a call to see the details of the posting.
Status Key: new=new posting, update=update prior posting, move=change club/group, delete=delete prior posting.

Sort by   for past

TimestampCallContestClassPowerScoreStatus
2020-05-26 03:32:57KW8NWWSACSOAB-OMHP10,324new5606
2020-05-22 04:39:15K8GTCWopsTSingle OpLP4,270new5594
2020-05-22 03:13:27NA8VNCCC SprintSingle OpLP2,288new5598
2020-05-22 03:09:23KW8NNCCC SprintSingle OpLP1,960new5598
2020-05-22 03:06:57N8EANCCC SprintSingle OpLP2,244new5598
2020-05-22 02:53:07K9NWNCCC SprintSingle OpLP180new5598
2020-05-21 10:33:23N8FYLCWopsTSingle OpLP3,477new5593
2020-05-21 10:31:49N8FYLCWopsTSingle OpLP3,300new5592
2020-05-21 04:11:12NA8VCWopsTSingle OpHP27,666new5594
2020-05-21 04:04:17K8AJSCWopsTSingle OpHP6,900new5594
 
2020-05-21 04:03:12NF8MCWopsTSingle OpLP961new5594
2020-05-21 04:01:52K9NWCWopsTSingle OpHP9,409new5594
2020-05-21 02:14:51NF8MCWopsTSingle OpLP529new5593
2020-05-20 23:13:55K8GTCWopsTSingle OpLP3,364new5593
2020-05-20 21:00:59AF8ACWopsTSingle OpLP3,480new5593
2020-05-20 20:07:23K8AJSCWopsTSingle OpHP6,308new5593
2020-05-20 20:04:03K9NWCWopsTSingle OpHP6,630new5593
2020-05-20 20:03:58N8EACWopsTSingle OpLP14,036new5593
2020-05-20 14:26:46K9NWCWopsTSingle OpQRP784new5592
2020-05-20 14:05:02AF8ACWopsTSingle OpLP5,625new5592
 
2020-05-20 14:03:13NA8VCWopsTSingle OpHP14,637new5592
2020-05-20 14:02:30K8AJSCWopsTSingle OpHP6,240new5592
2020-05-20 13:51:00NF8MCWopsTSingle OpLP1,024new5592
2020-05-20 03:07:12KW8NPhFraySingle OpLP1,026new5590
2020-05-18 04:43:33K8GTDeQPSingle OpLP480new5546
2020-05-18 04:22:25K8GTNewEngQPSingle OpLP4,884new5547
2020-05-18 02:51:54K8GTInQPSingle OpLP8new5545
2020-05-18 02:48:59K8GT7QPSO(A)CWLP9,576new5544
2020-05-18 01:25:43K9NWKing of Spain CWSOABHP5,546new5583
2020-05-17 15:35:55WB8WKQKing of Spain CWSOABHP25,996new5583
 
2020-05-17 09:29:37K8AJSHamventionSingle OpHP379new5569
2020-05-17 02:05:59N8FYLHamventionSingle OpLP147new5569
2020-05-17 01:23:14NF8MHamventionSingle OpLP59new5569
2020-05-17 00:40:51W8TMHamventionSingle OpLP256new5569
2020-05-17 00:22:36K8GTHamventionSingle OpLP152new5569
2020-05-17 00:20:24N8VVHamventionSingle OpLP167new5569
2020-05-17 00:11:54K9NWHamventionSingle OpLP233new5569
2020-05-17 00:05:00W8EWHHamventionSingle OpLP168new5569
2020-05-15 03:08:57KW8NNCCC SprintSingle OpLP1,610new5580
2020-05-15 03:08:18N8EANCCC SprintSingle OpLP1,496new5580
 
2020-05-15 03:03:28K8MRNCCC SprintSingle OpLP672new5580
2020-05-15 03:03:08NA8VNCCC SprintSingle OpLP1,530new5580
2020-05-14 04:56:29K8GTCWopsTSingle OpLP2,915new5576
2020-05-14 04:06:55NA8VCWopsTSingle OpHP16,884new5576
2020-05-14 04:03:43NF8MCWopsTSingle OpLP2,397new5576
2020-05-13 20:31:37K8GTCWopsTSingle OpLP1,849new5575
2020-05-13 20:28:50NF8MCWopsTSingle OpLP100new5575
2020-05-13 20:19:48AF8ACWopsTSingle OpLP121new5575
2020-05-13 20:04:56NA8VCWopsTSingle OpHP18,358new5575
2020-05-13 20:02:31N8FYLCWopsTSingle OpLP2,500new5575
 
2020-05-13 20:01:36K9NWCWopsTSingle OpLP8,010new5575
2020-05-13 15:16:11NF8MCWopsTSingle OpLP225new5574
2020-05-13 14:19:12N8EACWopsTSingle OpLP10,400new5574
2020-05-13 14:06:47N8FYLCWopsTSingle OpLP2,300new5574
2020-05-13 14:04:29NA8VCWopsTSingle OpLP841new5574
2020-05-13 14:03:41K8AJSCWopsTSingle OpHP8,190new5574
2020-05-13 14:01:24K9NWCWopsTSingle OpHP6,724new5574
2020-05-13 03:09:48KW8NPhFraySingle OpLP682new5572
2020-05-13 03:03:30AB8OUPhFraySingle OpLP9new5572
2020-05-11 01:13:20K8GTArQPSOCWLP598new5565
 
2020-05-11 00:11:10K8GTVolta RTTYSOABLP562,856new5563
2020-05-10 23:19:56K9NWArQPSOCWHP690new5565
2020-05-10 23:18:20K9NW(@K9UWA)CQ-MSOSB/20CWHP17,062new5564
2020-05-10 23:17:05K9NWVolta RTTYSOSB/20HP2,250new5563
2020-05-10 20:39:14NA8VCQ-MSOABCWHP210,308new5564
2020-05-10 18:14:18WB8WKQArQPSOMixedHP3,028new5565
2020-05-10 14:24:18N8VVCQ-MM/SLP11,856new5564
 (@N8VV)
2020-05-10 14:18:37N8VVArQPSOMixedLP1,650new5565
2020-05-10 12:07:18K8AJSCQ-MSOSB/20CWHP34,452new5564
2020-05-10 05:16:17W8TMArQPSOMixedLP4,138new5565
 
2020-05-10 02:59:26K9NW50SprngSprntSingle OpHP323new5567
2020-05-10 02:02:45NF8MArQPSOCWLP624new5565
2020-05-10 01:17:41W8KNOArQPSOMixedLP1,916new5565
2020-05-09 21:07:52W8EWHArQPSOCWLP362new5565
2020-05-08 03:09:26KW8NNCCC SprintSingle OpLP2,226new5562
2020-05-08 03:07:51K8MRNCCC SprintSingle OpLP725new5562
2020-05-08 03:07:32N8EANCCC SprintSingle OpLP2,475new5562
2020-05-08 03:06:34NA8VNCCC SprintSingle OpLP2,142new5562
2020-05-07 04:10:40K8GTCWopsTSingle OpLP2,400new5559
2020-05-07 04:08:19NF8MCWopsTSingle OpLP3,402new5559
 
2020-05-07 04:03:57N8EACWopsTSingle OpLP10,573new5559
2020-05-07 04:03:27AF8ACWopsTSingle OpLP441new5559
2020-05-07 04:03:14NA8VCWopsTSingle OpHP22,594new5559
2020-05-07 03:59:37K9NWCWopsTSingle OpHP5,329new5559
2020-05-06 20:09:40N8FYLCWopsTSingle OpLP3,306new5558
2020-05-06 20:08:30NA8VCWopsTSingle OpHP21,895new5558
2020-05-06 20:08:01K8GTCWopsTSingle OpLP1,980new5558
2020-05-06 20:05:02NF8MCWopsTSingle OpQRP225new5558
2020-05-06 20:04:40AF8ACWopsTSingle OpLP3,025new5558
2020-05-06 20:03:54N8EACWopsTSingle OpLP6,320new5558
 
2020-05-06 20:02:18K9NWCWopsTSingle OpHP3,660new5558
2020-05-06 15:02:28NF8MCWopsTSingle OpLP1,024new5557
2020-05-06 14:06:37NA8VCWopsTSingle OpHP24,255new5557
2020-05-06 14:03:10AF8ACWopsTSingle OpLP3,249new5557
2020-05-06 14:02:58K8AJSCWopsTSingle OpLP3,906new5557
2020-05-06 14:02:14N8FYLCWopsTSingle OpLP2,700new5557
2020-05-06 14:01:13K9NWCWopsTSingle OpHP4,096new5557
2020-05-06 03:08:58KW8NPhFraySingle OpLP962new5556
2020-05-05 20:34:59N8FYLInQPSingle OpLP2,244new5545
2020-05-05 20:32:35N8FYLNewEngQPSingle OpLP10,440new5547
 
2020-05-05 20:31:31N8FYLDeQPSingle OpLP1,920new5546
2020-05-05 20:27:50N8FYL7QPSOMixedLP14,716new5544
2020-05-04 17:40:56NF8MNewEngQPSingle OpLP3,248update5547
2020-05-04 17:40:19NF8M7QPSOCWLP4,278update5544
2020-05-04 16:03:47N8VVInQPSingle OpLP952new5545
2020-05-04 15:58:53N8VVNewEngQPSingle OpLP10,906new5547
2020-05-04 15:55:50N8VVDeQPSingle OpLP420new5546
2020-05-04 15:54:26N8VV7QPSO(A)MixedLP23,084new5544
2020-05-04 15:23:14NF8MDeQPSingle OpLP370update5546
2020-05-04 04:57:52W1NNDeQPSingle OpLP40new5546
 
2020-05-04 04:56:05W1NNInQPSingle OpLP126new5545
2020-05-04 04:54:27W1NNNewEngQPSingle OpLP4,216new5547
2020-05-04 04:51:06W1NN7QPSOCWLP4,263new5544
2020-05-04 03:49:25WB8WKQDeQPSingle OpLP2,210new5546
2020-05-04 03:40:43NF8MInQPSingle OpLP84new5545
2020-05-04 02:46:44WB8WKQNewEngQPSingle OpLP18,972new5547
2020-05-04 01:48:39WB8WKQ7QPSOMixedHP37,118new5544
2020-05-04 00:58:20K9NWARISO CWHP1,573new5543
2020-05-04 00:55:59AB8OUNewEngQPSingle OpLP3,850new5547
2020-05-04 00:52:48AB8OUDeQPSingle OpLP360new5546
 
2020-05-04 00:50:43K9NWNewEngQPSingle OpHP14,040new5547
2020-05-04 00:49:32K9NWInQPSingle OpHP990new5545
2020-05-04 00:48:58AB8OUInQPSingle OpLP144new5545
2020-05-04 00:48:20K9NWDeQPSingle OpHP900new5546
2020-05-04 00:47:28K9NW7QPSO(A)CWHP23,838new5544
2020-05-04 00:46:39AB8OU7QPSOMixedLP432new5544
2020-05-04 00:44:10W8TMNewEngQPSingle OpLP16,272new5547
2020-05-03 14:40:47WB8WKQInQPSingle OpHP4,738new5545
2020-05-03 14:05:02W8EWHNewEngQPSingle OpLP2,968new5547
2020-05-03 14:02:16W8EWH7QPSOCWLP6,372new5544
 
2020-05-03 13:59:28W8EWHInQPSingle OpLP630new5545
2020-05-01 03:08:49KW8NNCCC SprintSingle OpLP2,236new5540
2020-05-01 03:06:40NA8VNCCC SprintSingle OpLP1,813new5540
2020-05-01 03:05:00K8MRNCCC SprintSingle OpLP725new5540
2020-04-30 05:19:39K8GTCWopsTSingle OpLP3,135new5537
2020-04-30 04:02:26NA8VCWopsTSingle OpHP23,976new5537
2020-04-30 04:02:14NF8MCWopsTSingle OpLP6,080new5537
2020-04-30 04:00:35AF8ACWopsTSingle OpLP1,600new5537
2020-04-30 04:00:26K9NWCWopsTSingle OpHP4,225new5537
2020-04-29 23:17:50K8GTCWopsTSingle OpLP2,862new5536
 
2020-04-29 20:54:40AF8ACWopsTSingle OpLP3,480new5536
2020-04-29 20:43:46NF8MCWopsTSingle OpLP144new5536
2020-04-29 20:02:10K9NWCWopsTSingle OpHP4,556new5536
2020-04-29 20:01:14N8FYLCWopsTSingle OpLP3,136new5536
2020-04-29 14:15:02AF8ACWopsTSingle OpLP2,916new5535
2020-04-29 14:03:47N8FYLCWopsTSingle OpLP3,172new5535
2020-04-29 14:02:43K8AJSCWopsTSingle OpLP3,600new5535
2020-04-29 14:01:50NA8VCWopsTSingle OpHP10,504new5535
2020-04-29 14:01:37K9NWCWopsTSingle OpLP961new5535
2020-04-29 13:20:06NF8MCWopsTSingle OpLP144new5535
 
2020-04-29 11:16:02K8BKMFlQPSOABCWLP1,872new5529
2020-04-29 03:07:22KW8NPhFraySingle OpLP736new5533
2020-04-29 03:03:10AB8OUPhFraySingle OpLP36new5533
2020-04-28 22:56:06K8MRFlQPSOABMixedLP274,060new5529
2020-04-28 04:56:08W1NNFlQPSOABCWLP5,400new5529
2020-04-28 00:21:42KF8OFlQPSOABMixedLP11,096new5529
2020-04-27 14:49:09NF8MFlQPSOABCWLP7,308update5529
2020-04-27 14:27:41W8MJFlQPSOABMixedLP118,800new5529
2020-04-27 12:07:18N8EAFlQPSOAB(A)CWQRP12,396new5529
2020-04-27 05:05:25K8GTOnQPSO CWLP32new5507
 
2020-04-27 00:53:21N8FYLBARTG 75Single OpLP220new5522
2020-04-27 00:35:18N8FYLFlQPSOABMixedLP10,062new5529
2020-04-26 23:20:06WB8WKQFlQPSOABMixedHP38,868new5529
2020-04-26 22:48:37K8GTFlQPSOAB(A)CWLP10,428new5529
2020-04-26 22:26:58K9NWFlQPSOAB(A)MixedHP29,748new5529
2020-04-26 22:11:18W8KNOFlQPSOABCWLP1,728new5529
2020-04-26 22:02:39AF8AFlQPSOABCWLP10,488new5529
2020-04-26 22:01:35W8TMFlQPSOABMixedLP33,804new5529
2020-04-26 22:00:04AB8OUFlQPSOABMixedLP20,808new5529
2020-04-26 20:23:17K8AJSSPDX RTTYSOABLP172,350update5520
 
2020-04-26 18:31:53W8EWHFlQPSOABCWLP4,576new5529
2020-04-26 16:34:22N8VVFlQPSOAB(A)MixedLP51,262new